Regional Weather Roundup
Issued by NWS

Home | Current Version | Previous Version | Graphics & Text | Print | Product List | Glossary On
Versions: 1 2 3 4 5 6 7 8 9 10 11 12 13 14 15 16 17 18 19 20 21 22 23 24 25 26 27 28 29 30 31 32 33 34 35 36 37 38 39 40 41 42 43 44 45 46 47 48 49 50
000
ASUS45 KABQ 231310
RWRNM
NEW MEXICO REGIONAL WEATHER ROUNDUP
NATIONAL WEATHER SERVICE ALBUQUERQUE NM
700 AM MDT THU MAR 23 2017

NOTE: "FAIR" MEANS FEW OR NO CLOUDS BELOW 12,000 FEET AGL WITH NO
       SIGNIFICANT WEATHER OR OBSTRUCTIONS TO VISION.

      THIS PRODUCT IS RELEASED AS TWO VERSIONS.  ONE VERSION NEAR
      THE TOP OF THE HOUR CONTAINING PRELIMINARY DATA FROM ALBUQUERQUE
      AND OTHER STATIONS.  A FINAL VERSION WITH ADDITIONAL DATA IS
      ISSUED ABOUT 10 MINUTES AFTER THE HOUR.

NMZ501-503-504-510>518-231400-
NORTHWEST PLATEAU/NORTHCENTRAL MOUNTAINS

CITY           SKY/WX    TMP DP  RH WIND       PRES   REMARKS
FARMINGTON     FAIR      40  24  53 E9        29.83S WCI  34
LOS ALAMOS     FAIR      51  14  23 S15G21    29.91S
SANTA FE       FAIR      45  17  32 SE7       29.88S
TAOS             N/A     45  12  26 SW9       29.90S
ANGEL FIRE     FAIR      35  23  62 SW6       29.94F WCI  30

$$
NMZ402-403-502-505>509-231400-
WESTCENTRAL MOUNTAINS/SOUTHWEST MOUNTAINS

CITY           SKY/WX    TMP DP  RH WIND       PRES   REMARKS
GALLUP         FAIR      42  34  73 S9        29.87F
GRANTS         FAIR      35  23  61 SW6       29.92S WCI  30
SILVER CITY    FAIR      37  26  64 NW8       29.92R WCI  30

$$
NMZ407-409-411-412-231400-
SOUTHERN DESERTS

CITY           SKY/WX    TMP DP  RH WIND       PRES   REMARKS
DEMING         FAIR      47  20  34 CALM      29.87S
LAS CRUCES     FAIR      55  15  20 S7        29.88F
HOLLOMAN AFB   FAIR      62  17  17 SE15      29.89S
ALAMOGORDO     FAIR      59  19  21 S12       29.88R
T OR C         FAIR      60  19  20 S15       29.85R

$$
NMZ519>523-231400-
CENTRAL VALLEYS/CENTRAL HIGHLANDS

CITY           SKY/WX    TMP DP  RH WIND       PRES   REMARKS
ALBUQUERQUE    FAIR      54  16  22 S10       29.86R
DOUBLE EAGLE   PTCLDY    45  18  33 SW12      29.88R
MORIARTY ARPT  FAIR      42  16  34 S7        29.90S
CLINES CORNERS FAIR      50  14  23 SW24G35   29.91F
BELEN          FAIR      46  16  30 S8        29.86S
SOCORRO        FAIR      50  19  29 CALM      29.85R

$$
NMZ524>526-539-540-231400-
SOUTHCENTRAL MOUNTAINS

CITY           SKY/WX    TMP DP  RH WIND       PRES   REMARKS
RUIDOSO        FAIR      55  10  16 SW16G23   29.98S

$$
NMZ527>531-231400-
NORTHEAST HIGHLANDS/NORTHEAST PLAINS

CITY           SKY/WX    TMP DP  RH WIND       PRES   REMARKS
LAS VEGAS      FAIR      46  17  31 S13       29.88F
RATON          FAIR      45  39  79 CALM      29.85S
CLAYTON        FAIR      46  46 100 SW9       29.82S

$$
NMZ532>537-231400-
EASTCENTRAL PLAINS

CITY           SKY/WX    TMP DP  RH WIND       PRES   REMARKS
SANTA ROSA     FAIR      49  49  97 CALM      29.84S FOG
TUCUMCARI      FAIR      60  55  83 S21       29.79F
CANNON AFB     FAIR      56  56 100 S7        29.86F FOG
CLOVIS AIRPORT CLOUDY    57  54  88 S13       29.87F

$$
NMZ028-029-538-231400-
SOUTHEAST PLAINS

CITY           SKY/WX    TMP DP  RH WIND       PRES   REMARKS
ROSWELL        FAIR      57  55  93 S13         N/A  FOG
ARTESIA          N/A     57  57 100 SE16      29.85R FOG
CARLSBAD       FAIR      55  55 100 S9        29.84S
HOBBS          CLEAR     57  55  94 S15       29.91R


$$




USA.gov is the U.S. government's official web portal to all federal, state and local government web resources and services.